Погода в Старой Слободе

Россия / Санкт-Петербург и Ленинградская область     60°46′34″N   33°19′03″E
темп.,
°C
ветер,
м/с
пор.,
м/с
влажн.,
%
обл.,
%
осадки,
мм/ч
давл.,
гПа
погр.,
м
2 марта, вт
вт200:00+1зсз6149280 0.1 1006820
03:000зсз5148973 0.1 1007682
06:00−2зсз513893 0.0 1006591
09:00−2зсз5129020 0.0 1007633
12:00−1сз5109082 0.0 1008726
15:000сз5118487 0.1 10101457
18:00−3сз3128034 0.1 1012505
21:00−5сз3138418 0.1 1014434
3 марта, ср
ср300:00−6з38910 0.0 1014151
03:00−3зсз4129229 0.0 1014472
06:00−4зсз4139220 0.0 1012506
09:00−3зсз4119257 0.0 1012534
12:00−1зсз4109384 0.0 1011503
15:00−1з599288 0.0 1010662
18:00−1зюз3993100 0.0 1006658
21:00−1юз51197100 1.1 1002633
4 марта, чт
чт400:00+1з61498100 3.9 996926
03:00−1зсз51284100 4.6 994751
06:00−4зсз5139188 0.0 994752
09:00−5зсз6138993 0.0 994746
12:00−2ссз5985100 0.1 996999
15:00−3ссз478099 0.2 9981077
18:00−6ссз248990 0.0 1000109
21:00−9сз229388 0.0 100221
5 марта, пт
пт500:00−8сз249785 0.1 1003111
03:00−9зсз249784 0.2 1004142
06:00−10зсз249797 0.2 100498
09:00−10зсз259797 0.3 1005156
12:00−7зсз239097 0.0 1007373
15:00−7сз239097 0.1 1008560
18:00−9с3794100 0.2 1010303
21:00−14ссв259594 0.3 1012106
6 марта, сб
сб600:00−18с129429 0.0 101320
03:00−19ссз119414 0.0 101420
06:00−19з11960 0.0 101320
09:00−16юз24971 0.0 1012107
12:00−10зюз369295 0.0 1011424
15:00−8юз378992 0.0 1009527
18:00−10ююз379121 0.0 1007189
21:00−10ю3109249 0.0 1005385